This is the latest recevied weather packets stored in our database for station/object KD4EED. If no packets are shown the sender has not sent any weather packets the latest 10 day(s).
| Time | Temp. | Humidity | Pressure | Rain* | Wind** | Luminosity | Snow |
|---|---|---|---|---|---|---|---|
| 1788312293 | 25° C | 58% | 1011.4 hPa | - | - | 48 W/m² | - |
| 1788311967 | 25.56° C | 58% | 1011.3 hPa | - | - | 54 W/m² | - |
| 1788311662 | 25.56° C | 57% | 1011.3 hPa | - | - | 60 W/m² | - |
| 1788311361 | 26.11° C | 57% | 1011.2 hPa | - | - | 57 W/m² | - |
| 1788311057 | 26.67° C | 55% | 1011.5 hPa | - | - | 71 W/m² | - |
| 1788310756 | 26.67° C | 54% | 1011.3 hPa | - | - | 78 W/m² | - |
| 1788310455 | 27.22° C | 52% | 1011.5 hPa | - | - | 83 W/m² | - |
| 1788310152 | 27.22° C | 54% | 1011.6 hPa | - | - | 91 W/m² | - |
| 1788309851 | 26.67° C | 54% | 1011.6 hPa | - | - | 97 W/m² | - |
| 1788309546 | 27.22° C | 53% | 1011.5 hPa | - | - | 104 W/m² | - |
| 1788309241 | 27.22° C | 53% | 1011.5 hPa | - | - | 117 W/m² | - |
| 1788308937 | 27.22° C | 54% | 1011.5 hPa | - | - | 121 W/m² | - |
| 1788308635 | 27.22° C | 53% | 1011.5 hPa | - | - | 157 W/m² | - |
| 1788308331 | 27.78° C | 53% | 1011.4 hPa | - | - | 182 W/m² | - |
| 1788308026 | 27.22° C | 53% | 1011.6 hPa | - | - | 200 W/m² | - |
| 1788307722 | 27.22° C | 54% | 1011.5 hPa | - | - | 213 W/m² | - |
| 1788307421 | 27.22° C | 53% | 1011.6 hPa | - | - | 220 W/m² | - |
| 1788307117 | 27.78° C | 52% | 1011.4 hPa | - | - | 232 W/m² | - |
| 1788306816 | 27.78° C | 52% | 1011.5 hPa | - | - | 244 W/m² | - |
| 1788306512 | 27.78° C | 52% | 1011.6 hPa | - | - | 262 W/m² | - |
| 1788306221 | 27.78° C | 52% | 1011.7 hPa | - | - | 276 W/m² | - |
| 1788305907 | 27.78° C | 53% | 1011.7 hPa | - | - | 295 W/m² | - |
| 1788305603 | 27.78° C | 53% | 1011.9 hPa | - | - | 312 W/m² | - |
| 1788305298 | 27.22° C | 54% | 1011.6 hPa | - | - | 327 W/m² | - |
| 1788304992 | 27.22° C | 54% | 1011.7 hPa | - | - | 343 W/m² | - |
* Rain since midnight (hover to see other rain measurements)
** Current wind speed in m/s (hover to see current wind gust speed)